JBU969 KRIC-KMCO

Flight info

Callsign JBU969
Flight time N/A
Altitude 32000
Route KALLI7 DRAIK Q75 GSO Q83 ROYCO Q85 LPERD GTOUT1
Aircraft A320/M-SDE3FGHIRWY/LB1

Departure

Time 2026-05-07 11:54
Airport Richmond International Airport (KRIC)

Arrival

Time N/A
Airport Orlando International Airport (KMCO)
Time Latitude Longitude Altitude Speed Heading
2026-05-07 11:43 37.50849 -77.33056 171 ft 0 kts 330°
2026-05-07 11:45 37.50841 -77.33051 171 ft 2 kts 330°
2026-05-07 11:45 37.50827 -77.33040 171 ft 2 kts 330°
2026-05-07 11:45 37.50814 -77.33030 171 ft 2 kts 330°
2026-05-07 11:46 37.50799 -77.33020 171 ft 2 kts 312°
2026-05-07 11:46 37.50792 -77.33003 171 ft 2 kts 286°
2026-05-07 11:46 37.50787 -77.32984 172 ft 2 kts 286°
2026-05-07 11:46 37.50783 -77.32964 172 ft 2 kts 269°
2026-05-07 11:47 37.50786 -77.32944 173 ft 2 kts 224°
2026-05-07 11:47 37.50794 -77.32936 173 ft 0 kts 194°
2026-05-07 11:47 37.50782 -77.32938 173 ft 6 kts 185°
2026-05-07 11:48 37.50721 -77.32947 172 ft 9 kts 190°
2026-05-07 11:48 37.50645 -77.32969 172 ft 12 kts 193°
2026-05-07 11:48 37.50569 -77.32992 172 ft 10 kts 193°
2026-05-07 11:48 37.50490 -77.32988 171 ft 17 kts 142°
2026-05-07 11:49 37.50453 -77.32834 171 ft 19 kts 102°
2026-05-07 11:49 37.50436 -77.32638 166 ft 24 kts 95°
2026-05-07 11:49 37.50426 -77.32439 169 ft 22 kts 94°
2026-05-07 11:49 37.50416 -77.32262 170 ft 19 kts 96°
2026-05-07 11:50 37.50404 -77.32094 169 ft 19 kts 94°
2026-05-07 11:50 37.50392 -77.31938 169 ft 17 kts 90°
2026-05-07 11:50 37.50388 -77.31797 168 ft 16 kts 93°
2026-05-07 11:50 37.50371 -77.31640 167 ft 19 kts 121°
2026-05-07 11:51 37.50259 -77.31544 167 ft 21 kts 149°
2026-05-07 11:51 37.50131 -77.31442 164 ft 22 kts 145°
2026-05-07 11:51 37.50010 -77.31335 164 ft 21 kts 146°
2026-05-07 11:51 37.49925 -77.31269 163 ft 21 kts 148°
2026-05-07 11:52 37.49766 -77.31143 165 ft 20 kts 148°
2026-05-07 11:52 37.49689 -77.31082 165 ft 20 kts 148°
2026-05-07 11:52 37.49576 -77.30992 167 ft 18 kts 148°
2026-05-07 11:52 37.49499 -77.30887 166 ft 15 kts 78°
2026-05-07 11:53 37.49552 -77.30772 166 ft 16 kts 56°
2026-05-07 11:53 37.49607 -77.30701 165 ft 5 kts 342°
2026-05-07 11:53 37.49639 -77.30736 166 ft 17 kts 327°
2026-05-07 11:53 37.49950 -77.30981 165 ft 86 kts 329°
2026-05-07 11:54 37.50606 -77.31509 172 ft 135 kts 328°
2026-05-07 11:54 37.51501 -77.32210 409 ft 154 kts 329°
2026-05-07 11:54 37.52345 -77.33019 1044 ft 155 kts 310°
2026-05-07 11:54 37.52656 -77.34337 1605 ft 168 kts 269°
2026-05-07 11:55 37.52408 -77.35809 2073 ft 176 kts 263°
2026-05-07 11:55 37.52113 -77.37407 2275 ft 199 kts 263°
2026-05-07 11:55 37.51784 -77.39208 2486 ft 224 kts 262°
2026-05-07 11:55 37.51416 -77.41221 2807 ft 248 kts 260°
2026-05-07 11:56 37.51012 -77.43416 3357 ft 261 kts 259°
2026-05-07 11:56 37.50604 -77.45632 4356 ft 259 kts 258°
2026-05-07 11:56 37.50198 -77.47832 5323 ft 257 kts 258°
2026-05-07 11:56 37.49792 -77.50024 6276 ft 256 kts 257°
2026-05-07 11:57 37.49396 -77.52183 7162 ft 255 kts 257°
2026-05-07 11:57 37.49001 -77.54355 8078 ft 253 kts 258°
2026-05-07 11:57 37.48593 -77.56507 8983 ft 252 kts 256°
2026-05-07 11:57 37.48106 -77.58614 9876 ft 250 kts 255°
2026-05-07 11:58 37.47581 -77.60701 10480 ft 259 kts 253°
2026-05-07 11:58 37.47006 -77.62953 10634 ft 282 kts 253°
2026-05-07 11:58 37.46386 -77.65370 10777 ft 304 kts 252°
2026-05-07 11:58 37.45701 -77.67957 11189 ft 315 kts 252°
2026-05-07 11:59 37.44991 -77.70589 11815 ft 319 kts 251°
2026-05-07 11:59 37.44276 -77.73232 12482 ft 321 kts 251°
2026-05-07 11:59 37.43556 -77.75907 13155 ft 323 kts 251°
2026-05-07 11:59 37.42840 -77.78589 13819 ft 325 kts 250°
2026-05-07 12:00 37.42118 -77.81300 14420 ft 326 kts 251°
2026-05-07 12:00 37.41395 -77.83997 15055 ft 326 kts 251°
2026-05-07 12:00 37.40669 -77.86704 15701 ft 326 kts 251°
2026-05-07 12:00 37.39942 -77.89407 16366 ft 325 kts 251°
2026-05-07 12:01 37.39220 -77.92096 17037 ft 325 kts 251°
2026-05-07 12:01 37.38501 -77.94784 17725 ft 325 kts 252°
2026-05-07 12:01 37.37779 -77.97483 18424 ft 324 kts 252°
2026-05-07 12:01 37.37056 -78.00170 19064 ft 324 kts 251°
2026-05-07 12:02 37.36335 -78.02847 19663 ft 324 kts 251°
2026-05-07 12:02 37.35618 -78.05510 20221 ft 326 kts 251°
2026-05-07 12:02 37.34894 -78.08208 20728 ft 327 kts 251°
2026-05-07 12:02 37.34154 -78.10960 21034 ft 336 kts 251°
2026-05-07 12:03 37.33396 -78.13758 21396 ft 341 kts 251°
2026-05-07 12:03 37.32627 -78.16597 21838 ft 344 kts 251°
2026-05-07 12:03 37.31856 -78.19443 22288 ft 346 kts 250°
2026-05-07 12:03 37.31078 -78.22318 22738 ft 348 kts 250°
2026-05-07 12:04 37.30297 -78.25197 23190 ft 350 kts 250°
2026-05-07 12:04 37.29507 -78.28102 23598 ft 352 kts 250°
2026-05-07 12:04 37.28715 -78.31023 23964 ft 353 kts 250°
2026-05-07 12:04 37.27932 -78.33943 24340 ft 354 kts 251°
2026-05-07 12:05 37.27217 -78.36911 24715 ft 355 kts 253°
2026-05-07 12:05 37.26557 -78.39891 25084 ft 355 kts 253°
2026-05-07 12:05 37.25917 -78.42897 25421 ft 356 kts 254°
2026-05-07 12:05 37.25276 -78.45891 25791 ft 356 kts 254°
2026-05-07 12:06 37.24621 -78.48904 26152 ft 357 kts 253°
2026-05-07 12:06 37.23956 -78.51904 26517 ft 358 kts 253°
2026-05-07 12:06 37.23279 -78.54919 26876 ft 359 kts 253°
2026-05-07 12:06 37.22601 -78.57924 27256 ft 358 kts 253°
2026-05-07 12:07 37.21919 -78.60924 27779 ft 355 kts 253°
2026-05-07 12:07 37.21247 -78.63881 28328 ft 351 kts 254°
2026-05-07 12:07 37.20578 -78.66820 28891 ft 348 kts 254°
2026-05-07 12:07 37.19918 -78.69713 29485 ft 344 kts 254°
2026-05-07 12:08 37.19264 -78.72575 30148 ft 337 kts 254°
2026-05-07 12:08 37.18627 -78.75374 30690 ft 332 kts 254°
2026-05-07 12:08 37.17995 -78.78151 31098 ft 329 kts 254°
2026-05-07 12:08 37.17366 -78.80910 31410 ft 330 kts 254°
2026-05-07 12:09 37.16732 -78.83689 31758 ft 331 kts 254°
2026-05-07 12:09 37.16102 -78.86457 31891 ft 333 kts 254°
2026-05-07 12:09 37.15458 -78.89285 31911 ft 340 kts 254°
2026-05-07 12:10 37.14116 -78.94997 31908 ft 345 kts 250°
2026-05-07 12:10 37.11435 -79.00020 31909 ft 358 kts 230°
2026-05-07 12:11 37.07411 -79.03856 31906 ft 365 kts 225°
2026-05-07 12:11 37.03332 -79.07624 31919 ft 364 kts 225°
2026-05-07 12:12 36.99260 -79.11384 31917 ft 363 kts 225°
2026-05-07 12:12 36.95195 -79.15143 31870 ft 364 kts 226°
2026-05-07 12:13 36.91122 -79.18913 31871 ft 365 kts 226°
2026-05-07 12:13 36.87051 -79.22668 31882 ft 366 kts 225°
2026-05-07 12:14 36.82953 -79.26443 31891 ft 366 kts 225°
2026-05-07 12:14 36.78848 -79.30215 31903 ft 366 kts 225°
2026-05-07 12:15 36.74730 -79.33993 31871 ft 367 kts 225°
2026-05-07 12:15 36.70599 -79.37791 31912 ft 370 kts 225°
2026-05-07 12:16 36.66441 -79.41588 31908 ft 370 kts 225°
2026-05-07 12:16 36.62307 -79.45363 31933 ft 370 kts 225°
2026-05-07 12:17 36.58127 -79.49172 31930 ft 370 kts 225°
2026-05-07 12:17 36.54011 -79.52927 31897 ft 369 kts 225°
2026-05-07 12:18 36.49867 -79.56713 31865 ft 370 kts 225°
2026-05-07 12:18 36.45702 -79.60509 31865 ft 372 kts 225°
2026-05-07 12:19 36.41513 -79.64308 31873 ft 373 kts 225°
2026-05-07 12:19 36.37311 -79.68107 31879 ft 374 kts 225°
2026-05-07 12:20 36.33107 -79.71917 31916 ft 374 kts 225°
2026-05-07 12:20 36.28890 -79.75739 31899 ft 375 kts 225°
2026-05-07 12:21 36.24671 -79.79560 31899 ft 376 kts 225°
2026-05-07 12:21 36.20471 -79.83341 31920 ft 376 kts 225°
2026-05-07 12:22 36.16240 -79.87143 31928 ft 376 kts 225°
2026-05-07 12:22 36.12007 -79.90946 31922 ft 376 kts 225°
2026-05-07 12:23 36.07775 -79.94748 31881 ft 376 kts 225°
2026-05-07 12:23 36.03323 -79.98265 31892 ft 389 kts 214°
2026-05-07 12:24 35.98259 -80.00789 31896 ft 393 kts 212°
2026-05-07 12:24 35.93171 -80.03288 31897 ft 394 kts 212°
2026-05-07 12:25 35.88083 -80.05801 31897 ft 394 kts 212°
2026-05-07 12:25 35.83013 -80.08298 31881 ft 394 kts 212°
2026-05-07 12:26 35.77905 -80.10815 31895 ft 397 kts 211°
2026-05-07 12:26 35.72764 -80.13341 31902 ft 398 kts 211°
2026-05-07 12:27 35.67593 -80.15880 31911 ft 400 kts 211°
2026-05-07 12:27 35.62461 -80.18396 31944 ft 399 kts 212°
2026-05-07 12:28 35.57315 -80.20924 31957 ft 398 kts 212°
2026-05-07 12:28 35.52181 -80.23439 31967 ft 397 kts 212°
2026-05-07 12:29 35.47054 -80.25945 31974 ft 396 kts 212°
2026-05-07 12:29 35.41928 -80.28441 31967 ft 396 kts 212°
2026-05-07 12:30 35.36542 -80.30302 31959 ft 413 kts 200°
2026-05-07 12:30 35.30851 -80.31374 31915 ft 415 kts 199°
2026-05-07 12:31 35.25124 -80.32443 31905 ft 416 kts 199°
2026-05-07 12:31 35.19404 -80.33532 31897 ft 416 kts 199°
2026-05-07 12:32 35.13717 -80.34621 31891 ft 417 kts 199°
2026-05-07 12:32 35.07963 -80.35701 31866 ft 418 kts 198°
2026-05-07 12:33 34.99288 -80.37336 31875 ft 422 kts 198°
2026-05-07 12:33 34.93480 -80.38424 31885 ft 423 kts 198°
2026-05-07 12:34 34.87663 -80.39517 31889 ft 423 kts 198°
2026-05-07 12:34 34.81827 -80.40619 31885 ft 426 kts 198°
2026-05-07 12:35 34.75994 -80.41718 31890 ft 426 kts 198°
2026-05-07 12:35 34.70122 -80.42812 31901 ft 427 kts 198°
2026-05-07 12:36 34.64241 -80.43905 31918 ft 427 kts 198°
2026-05-07 12:36 34.58361 -80.45001 31900 ft 428 kts 198°
2026-05-07 12:37 34.52472 -80.46102 31907 ft 428 kts 198°
2026-05-07 12:37 34.47571 -80.47018 31901 ft 429 kts 198°
2026-05-07 12:38 34.41671 -80.48116 31908 ft 429 kts 198°
2026-05-07 12:38 34.35767 -80.49216 31884 ft 429 kts 198°
2026-05-07 12:39 34.29837 -80.50322 31889 ft 431 kts 197°
2026-05-07 12:39 34.23993 -80.51607 31896 ft 426 kts 202°
2026-05-07 12:40 34.18228 -80.53330 31902 ft 427 kts 202°
2026-05-07 12:40 34.12454 -80.55065 31932 ft 426 kts 202°
2026-05-07 12:41 34.06701 -80.56787 31859 ft 427 kts 201°
2026-05-07 12:41 34.00918 -80.58522 31856 ft 428 kts 201°
2026-05-07 12:42 33.95170 -80.60238 31863 ft 429 kts 201°
2026-05-07 12:42 33.89374 -80.61964 31875 ft 429 kts 201°
2026-05-07 12:43 33.83572 -80.63690 31863 ft 430 kts 201°
2026-05-07 12:43 33.77744 -80.65428 31874 ft 433 kts 201°
2026-05-07 12:44 33.71877 -80.67169 31919 ft 435 kts 201°
2026-05-07 12:44 33.65984 -80.68914 31916 ft 437 kts 201°
2026-05-07 12:45 33.60077 -80.70656 31887 ft 437 kts 201°
2026-05-07 12:45 33.54153 -80.72409 31889 ft 439 kts 201°
2026-05-07 12:46 33.48202 -80.74163 31896 ft 441 kts 201°